Simultaneous Nadir Overpasses (SNOs) Predictions

Prediction of SNOs between FY3D and METOP-C Satellite Orbit:

Table of predicted SNOs for the next 14.0 days since TLE Epoch: 11/26/2023
Index Date (FY3D) Time (FY3D) Lat,Lon (FY3D) SZA (FY3D ) Date (METOP-C) Time (METOP-C) Lat,Lon (METOP-C) SZA (METOP-C ) Distance(km) Time Diff (sec)
1 12/03/2023 16:06:08 -75.95, 114.32 82.01 12/03/2023 16:07:13 -75.89, 117.90 82.06 97.14 65
2 12/03/2023 16:56:49 75.68, -77.48 97.73 12/03/2023 16:57:58 75.65, -75.56 97.70 53.09 69
3 12/03/2023 17:47:31 -75.57, 90.19 82.38 12/03/2023 17:48:42 -75.55, 91.45 82.40 35.09 71
4 12/03/2023 18:38:13 75.35,-101.79 97.41 12/03/2023 18:39:26 75.35,-101.83 97.41 1.12 73
5 12/03/2023 19:28:57 -75.33, 65.57 82.61 12/03/2023 19:30:08 -75.34, 65.47 82.60 2.87 71
6 12/03/2023 20:19:44 75.34,-127.15 97.41 12/03/2023 20:20:48 75.33,-127.23 97.39 2.78 64
7 12/03/2023 21:10:28 -75.32, 40.22 82.61 12/03/2023 21:11:30 -75.32, 40.07 82.61 4.04 62
8 12/03/2023 22:01:15 75.33,-152.50 97.41 12/03/2023 22:02:09 75.35,-152.49 97.43 2.52 54
9 12/03/2023 22:52:00 -75.36, 14.72 82.56 12/03/2023 22:52:51 -75.35, 14.82 82.58 3.33 51
10 12/03/2023 23:42:46 75.32,-177.86 97.41 12/03/2023 23:43:31 75.33,-177.89 97.42 1.45 45
11 12/04/2023 00:33:30 -75.31, -10.49 82.60 12/04/2023 00:34:13 -75.33, -10.58 82.59 3.25 43
12 12/04/2023 01:24:17 75.32, 156.79 97.41 12/04/2023 01:24:53 75.31, 156.71 97.41 2.17 36
13 12/04/2023 02:15:01 -75.30, -35.85 82.60 12/04/2023 02:15:35 -75.31, -35.98 82.60 3.87 34
14 12/04/2023 03:05:48 75.31, 131.43 97.42 12/04/2023 03:06:14 75.34, 131.46 97.45 3.73 26
15 12/04/2023 03:56:33 -75.34, -61.35 82.55 12/04/2023 03:56:56 -75.33, -61.24 82.56 3.07 23
16 12/04/2023 04:47:19 75.30, 106.08 97.42 12/04/2023 04:47:36 75.32, 106.06 97.44 2.41 17
17 12/04/2023 05:38:04 -75.33, -86.70 82.55 12/04/2023 05:38:18 -75.31, -86.64 82.57 2.66 14
18 12/04/2023 06:28:50 75.29, 80.72 97.42 12/04/2023 06:28:58 75.30, 80.66 97.43 2.14 8
19 12/04/2023 07:19:35 -75.33,-112.06 82.55 12/04/2023 07:19:40 -75.29,-112.04 82.58 3.43 5
20 12/04/2023 08:10:21 75.29, 55.37 97.42 12/04/2023 08:10:20 75.28, 55.26 97.42 3.21 1
21 12/04/2023 09:01:06 -75.32,-137.41 82.55 12/04/2023 09:01:01 -75.32,-137.30 82.54 3.24 5
22 12/04/2023 09:51:52 75.28, 30.01 97.42 12/04/2023 09:51:41 75.31, 30.00 97.45 3.49 11
23 12/04/2023 10:42:37 -75.31,-162.77 82.55 12/04/2023 10:42:23 -75.30,-162.70 82.55 2.14 14
24 12/04/2023 11:33:23 75.27, 4.66 97.43 12/04/2023 11:33:03 75.29, 4.60 97.44 2.68 20
25 12/04/2023 12:24:08 -75.30, 171.88 82.54 12/04/2023 12:23:45 -75.28, 171.90 82.57 2.39 23
26 12/04/2023 13:14:54 75.26, -20.70 97.43 12/04/2023 13:14:25 75.27, -20.80 97.43 3.02 29
27 12/04/2023 14:05:39 -75.29, 146.52 82.54 12/04/2023 14:05:07 -75.26, 146.50 82.58 3.72 32
28 12/04/2023 14:56:26 75.30, -46.20 97.48 12/04/2023 14:55:46 75.30, -46.06 97.47 3.94 40
29 12/04/2023 15:47:09 -75.29, 121.17 82.54 12/04/2023 15:46:27 -75.29, 121.24 82.54 2.16 42
30 12/04/2023 16:37:56 75.30, -71.55 97.48 12/04/2023 16:37:07 75.28, -71.46 97.46 3.32 49
31 12/04/2023 17:28:40 -75.28, 95.81 82.54 12/04/2023 17:27:49 -75.27, 95.84 82.55 1.50 51
32 12/04/2023 18:19:26 75.24, -96.76 97.43 12/04/2023 18:18:29 75.26, -96.86 97.45 3.24 57
33 12/04/2023 19:10:11 -75.27, 70.46 82.54 12/04/2023 19:09:11 -75.25, 70.44 82.56 2.63 60
34 12/04/2023 20:00:57 75.23,-122.12 97.43 12/04/2023 19:59:51 75.24,-122.26 97.44 3.96 66
35 12/04/2023 20:51:42 -75.26, 45.10 82.54 12/04/2023 20:50:32 -75.28, 45.19 82.52 2.69 70
36 12/04/2023 21:42:27 75.18,-147.33 97.39 12/04/2023 21:41:13 75.22,-147.66 97.43 10.18 74
37 12/04/2023 22:33:10 -75.12, 20.17 82.67 12/04/2023 22:31:57 -75.11, 19.37 82.68 23.02 73
38 12/04/2023 23:23:51 74.84,-171.71 97.06 12/04/2023 23:22:43 74.81,-174.15 97.03 71.10 68
39 12/05/2023 00:14:33 -74.73, -4.08 83.05 12/05/2023 00:13:27 -74.71, -7.11 83.07 88.67 66



Historial Predications of SNOs between FY3D and METOP-C
